Tracking 30995 objects as of 5-Jul-2025
HD Live streaming from Space Station
objects crossing your sky now

FENGYUN 1C DEB

Track FENGYUN 1C DEB now!
10-day predictions


NORAD ID: 29874
Int'l Code: 1999-025FU
Perigee: 732.8 km
Apogee: 888.0 km
Inclination: 98.4 °
Period: 100.9 minutes
Semi major axis: 7181 km
RCS: 0.0288 m2 (small)
Launch date: May 10, 1999
Source: People's Republic of China (PRC)
Launch site: Taiyaun Space Center, China (TSC)

Note: This is SATELLITE DEBRIS
Your satellite tracking list
Your tracking list is empty




NASA's NSSDC Master Catalog

Two Line Element Set (TLE):
1 29874U 99025FU  25186.20898281  .00004420  00000-0  17377-2 0  9992
2 29874  98.3853  89.6314 0108083 101.2231  59.9201 14.26557831945577
Source of the keplerian elements: AFSPC